{"data":{"norad_id":49194,"epoch":"2026-05-25T01:43:51.073824Z","epoch_age_seconds":69542,"freshness":"FRESH","line1":"1 49194U 21083J   26145.07211891 -.00000029  00000+0 -10723-3 0  9996","line2":"2 49194  87.9161 340.0597 0001874  86.6088 273.5258 13.18685852226969","mean_motion":13.18685852,"eccentricity":0.0001874,"inclination_deg":87.9161,"raan_deg":340.0597,"arg_perigee_deg":86.6088,"mean_anomaly_deg":273.5258,"bstar":-0.00010723,"rev_number":22696,"period_min":109.19962459717,"perigee_km":1188.3254722687,"apogee_km":1191.1619139525,"semimajor_km":7567.8806931106,"source":"CELESTRAK","updated_at":"2026-05-25T13:38:22.490454Z"}}